Regional Weather Roundup
Issued by NWS

Home | Current Version | Previous Version | Text Only | Print | Product List | Glossary On
Versions: 1 2 3 4 5 6 7 8 9 10 11 12 13 14 15 16 17 18 19 20 21 22 23 24 25 26 27 28 29 30 31 32 33 34 35 36 37 38 39 40 41 42 43 44 45 46 47 48 49 50
000
ASUS44 KJAN 261310
RWRMS

MISSISSIPPI HOURLY WEATHER ROUNDUP
NATIONAL WEATHER SERVICE JACKSON MS
700 AM CST WED NOV 26 2014

NOTE: "FAIR: INDICATES FEW OR NO CLOUDS BELOW 12,000 FEET WITH NO
SIGNIFICANT WEATHER AND/OR OBSTRUCTIONS TO VISIBILITY.

MSZ001>002-007>008-010>013-018>021-025>028-034>036-261400-
NORTHWEST MISSISSIPPI

CITY           SKY/WX    TMP DP  RH WIND       PRES   REMARKS
CLARKSDALE     FAIR      32  30  93 SE7       30.16S WCI  26
CLEVELAND      FAIR      36  32  87 SE9       30.15F WCI  29
GREENWOOD      CLEAR     28  25  88 CALM      30.19R
GREENVILLE     CLEAR     35  30  82 SE6       30.16R WCI  30
GRENADA        FAIR      27  25  93 CALM      30.19R
OLIVE BRANCH   PTCLDY    28  28 100 CALM      30.14S
OXFORD         FAIR      28  25  86 SE3       30.17S
TUNICA         SUNNY     30  28  93 S6        30.16S WCI  24
$$

MSZ003>006-009-014>017-022>024-029>033-037>039-261400-
NORTHEAST MISSISSIPPI

CITY           SKY/WX    TMP DP  RH WIND       PRES   REMARKS
COLUMBUS AFB   CLEAR     24  22  91 S1        30.19R
CORINTH        FAIR      25  23  93 CALM      30.15S
GOLDN TRIANGLE CLEAR     27  23  86 CALM      30.17R
STARKVILLE       N/A     27  25  93 S3        30.19R
TUPELO         CLEAR     29  26  89 CALM      30.16S
$$

MSZ040-058-261400-
CENTRAL MISSISSIPPI

CITY           SKY/WX    TMP DP  RH WIND       PRES   REMARKS
JACKSON INTL   CLEAR     29  27  92 S3        30.20S
JACKSON HAWKNS CLEAR     29  27  92 SE3       30.20S
MERIDIAN KEY   CLEAR     28  26  92 CALM      30.21R
MERIDIAN NAS   CLEAR     29  26  89 W5        30.21R WCI  24
RAYMOND        FAIR      28  25  86 MISG      30.21R
VICKSBURG      CLEAR     30  28  92 CALM      30.21R
$$

MSZ059>079-261400-
SOUTH MISSISSIPPI

CITY           SKY/WX    TMP DP  RH WIND       PRES   REMARKS
BROOKHAVEN     FAIR      30  30 100 CALM      30.23R
HATTIESBURG    CLEAR     31  28  89 CALM      30.24R
MCCOMB         CLEAR     30  27  88 CALM      30.23R
NATCHEZ        CLEAR     32  28  86 S5        30.22R WCI  27
PINE BELT      CLEAR     28  27  93 CALM      30.23R
$$

MSZ080>082-261400-
COASTAL MISSISSIPPI

CITY           SKY/WX    TMP DP  RH WIND       PRES   REMARKS
BAY ST LOUIS   CLEAR     30  27  86 CALM      30.26
BILOXI         CLEAR     39  33  78 NW2       30.24R
PASCAGOULA     CLEAR     30  28  92 CALM      30.24R
GULFPORT       CLEAR     34  31  88 CALM      30.23S
$$


USA.gov is the U.S. government's official web portal to all federal, state and local government web resources and services.